#timestamp,LO_Frequency,Hit,StdDev 
1532696415.3,286047007.1,N
1532696435.1,286047011.2,N
1532696455.9,286047013.7,Y
1532696475.7,286047008.1,P
1532696495.6,286047007.9,P
1532696515.4,286047006.1,N
1532696535.2,286047006.8,Y
1532696555.1,286047000.1,P
1532696556.0,286047000.1,N
1532696575.8,286046998.2,N
1532696595.6,286046999.3,N
1532696615.5,286046999.5,N
1532696635.3,286046999.1,N
1532696655.8,286046999.1,N
1532696675.7,286046997.4,N
1532696695.5,286046999.4,N
1532696715.3,286046997.7,N
1532696735.2,286046995.0,N
1532696755.0,286046995.7,N
1532696755.9,286046995.7,N
1532696775.7,286046995.1,N
1532696795.6,286046993.4,N
1532696815.4,286046996.4,N
1532696835.3,286046992.2,N
1532696855.1,286046992.1,N
1532696856.0,286046992.1,N
1532696875.8,286046992.1,N
1532696895.7,286046991.9,N
1532696915.5,286046994.5,N
1532696935.3,286046991.9,N
1532696955.2,286046991.8,N
1532696975.0,286046991.7,N
1532696975.9,286046991.7,N
1532696995.8,286046994.1,N
1532697015.6,286046994.8,N
1532697035.4,286046996.0,N
1532697055.3,286046996.2,N
1532697075.1,286046996.4,N
1532697095.9,286046994.7,N
1532697115.7,286046991.7,Y
1532697135.5,286046996.8,P
1532697155.4,286046998.9,N
1532697175.2,286046999.6,N
1532697195.0,286046998.5,N
1532697195.9,286046998.5,N
1532697215.8,286046999.0,N
1532697235.6,286046996.5,N
1532697255.5,286046999.5,N
1532697275.3,286046998.8,N
1532697295.1,286046998.7,N
1532697315.9,286046999.5,N
1532697335.7,286046998.6,N
1532697355.5,286046998.8,N
1532697375.4,286046996.5,N
1532697395.2,286046999.0,N
1532697415.1,286046999.4,N
1532697416.0,286046999.4,N
1532697435.8,286046998.8,N
1532697455.6,286046999.2,N
1532697475.5,286046996.5,N
1532697495.3,286046999.6,N
1532697515.1,286046999.5,N
1532697535.9,286046999.3,N
1532697555.7,286047001.2,N
1532697575.6,286047000.4,N
1532697595.4,286047000.3,N
1532697615.2,286047000.4,N
1532697635.1,286047000.8,N
1532697636.0,286047000.8,N
1532697655.8,286047000.9,N
1532697705.7,286047000.5,E
1532697715.6,286046998.1,N
1532697735.4,286046998.3,P
1532697755.3,286046998.3,P
1532697775.1,286046998.7,Y
1532697795.8,286047000.2,P
1532697815.7,286047002.4,N
1532697835.5,286047002.2,N
1532697855.4,286047005.7,Y
1532697875.2,286047001.8,P
1532697895.0,286047002.1,P
1532697895.9,286047002.1,P
1532697915.8,286047002.0,Y
1532697935.6,286047000.5,P
1532697955.5,286047000.6,N
1532697975.3,286047000.3,N
1532697995.1,286046998.5,N
1532698015.9,286046998.5,N
1532698035.7,286046998.8,N
1532698055.5,286046999.4,N
1532698075.4,286046999.5,N
1532698095.7,286046997.8,N
1532698115.6,286046999.3,N
1532698135.4,286046999.6,N
1532698155.2,286046998.5,N
1532698175.1,286047000.7,N
1532698176.0,286047000.7,N
1532698195.8,286047000.9,N
1532698215.7,286047000.9,N
1532698235.5,286047001.0,N
1532698255.3,286047000.2,N
1532698275.2,286047000.3,N
1532698295.0,286047001.0,N
1532698295.9,286047001.0,N
1532698315.8,286047000.1,N
1532698365.7,286047002.4,E
1532698375.6,286046999.8,N
1532698395.4,286046999.5,P
1532698415.2,286046998.2,P
1532698435.1,286047000.4,N
1532698436.0,286047000.4,N
1532698455.8,286046998.7,N
1532698475.7,286046997.1,Y
1532698495.5,286046999.1,P
1532698515.3,286046998.1,P
1532698535.2,286047005.4,P
1532698555.0,286047007.2,N
1532698555.9,286047007.2,N
1532698575.8,286047005.2,N
1532698595.6,286047003.4,N
1532698615.4,286047003.7,N
1532698635.3,286047003.8,N
1532698655.1,286047004.0,N
1532698675.9,286047001.7,N
1532698695.7,286047001.8,N
1532698715.5,286046999.8,N
1532698735.4,286047000.0,N
1532698755.2,286046998.3,N
1532698775.0,286047001.8,N
1532698776.0,286047001.8,N
1532698795.8,286047008.0,N
1532698815.7,286047004.9,N
1532698835.5,286047005.6,N
1532698855.3,286047003.5,N
1532698875.2,286047001.4,N
1532698895.0,286046999.8,N
1532698895.9,286046999.8,N
1532698915.8,286046999.8,N
1532698935.1,286047000.2,N
1532698936.0,286047000.2,N
1532698955.8,286046999.7,N
1532698975.7,286047001.0,N
1532698995.5,286047000.5,N
1532699015.4,286046998.3,N
1532699035.2,286047000.7,N
1532699055.0,286047000.6,N
1532699055.9,286047000.6,N
1532699075.8,286046998.1,N
1532699095.6,286046999.0,N
1532699115.4,286046998.7,N
1532699135.3,286046998.6,N
1532699155.1,286046998.5,N
1532699175.9,286046998.8,N
1532699195.2,286046998.3,N
1532699215.1,286046998.4,N
1532699216.0,286046998.4,N
1532699235.8,286046998.8,N
1532699255.7,286046999.0,N
1532699275.5,286046996.5,N
1532699295.3,286046996.7,N
1532699315.2,286046997.1,N
1532699335.0,286046999.1,N
1532699335.9,286046999.1,N
1532699355.8,286046998.1,N
1532699375.6,286046999.2,N
1532699395.4,286046999.4,N
1532699415.3,286047000.8,N
1532699435.1,286047000.7,N
1532699455.9,286046998.5,N
1532699475.7,286046999.1,N
1532699495.6,286046999.4,N
1532699515.7,286046998.7,N
1532699535.6,286047000.6,N
1532699555.4,286046998.1,N
1532699575.3,286046999.1,N
1532699595.1,286046999.6,N
1532699596.0,286046999.6,N
1532699615.8,286046996.7,Y
1532699635.7,286046999.3,P
1532699655.5,286047002.7,P
1532699675.3,286047003.9,N
1532699695.2,286047007.5,Y
1532699715.0,286047004.7,P
1532699715.9,286047004.7,N
1532699735.8,286047003.4,N
1532699755.6,286047004.1,N
1532699775.4,286047003.2,N
1532699795.3,286047004.3,Y
1532699815.1,286046999.2,P
1532699835.9,286046996.7,N
1532699855.7,286046997.7,N
1532699875.5,286046995.1,N
1532699895.4,286046995.8,N
1532699915.2,286046993.4,N
1532699935.0,286046993.5,N
1532699935.9,286046993.5,N
1532699955.8,286046993.6,N
1532699975.6,286046995.7,N
1532699995.3,286046993.4,N
